Des Moines, IA

10:04 AM CDT on May 28, 2017 (GMT -0500)
Des Moines International

Weather History for KDSM - November, 2011

Change the Weather History Date:

Wednesday, November 30, 2011

  Actual Average Record
Temperature  
Mean Temperature 35 °F 31 °F  
Max Temperature 50 °F 40 °F 69 °F (1922)
Min Temperature 19 °F 23 °F -3 °F (1964)
Degree Days  
Heating Degree Days 30 34  
Month to date heating degree days 664 775  
Since 1 July heating degree days 1076 1258  
Cooling Degree Days 0 0  
Month to date cooling degree days 0 0  
Year to date cooling degree days 1353 1066  
Moisture  
Dew Point 12 °F    
Average Humidity 44    
Maximum Humidity 68    
Minimum Humidity 19    
Precipitation  
Precipitation 0.00 in 0.06 in 0.91 in (1881)
Month to date precipitation 2.78 2.19  
Year to date precipitation 34.66 34.60  
Snow  
Snow 0.00 in 0.20 in 8.00 in (1893)
Month to date snowfall 3.7 2.5  
Since 1 July snowfall 3.7 2.9  
Since 1 September snowfall 3.7 2.9  
Snow Depth 0.00 in    
Sea Level Pressure  
Sea Level Pressure 30.08 in    
Wind  
Wind Speed 8 mph (SSW)    
Max Wind Speed 21 mph    
Max Gust Speed 25 mph    
Visibility 10 miles    
Events      
T = Trace of Precipitation, MM = Missing Value Source: NWS Daily Summary

Daily Weather History Graph

Daily Weather History Graph

Search for Another Location

Airport or City:

Trip Planner

Search our weather history database for the weather conditions in past years. The results will help you decide how hot, cold, wet, or windy it might be!

Date:

Astronomy

Nov. 30, 2011 Rise Set
Actual Time 7:20 AM CST 4:45 PM CST
Civil Twilight 6:49 AM CST 5:16 PM CST
Nautical Twilight 6:15 AM CST 5:51 PM CST
Astronomical Twilight 5:41 AM CST 6:24 PM CST
Moon 11:36 AM CST (11/30) 10:46 PM CST (11/30)
Length of Visible Light 10h 27m
Length of Day
9h 25m
Waxing Crescent, 34% of the Moon is Illuminated
Nov 30
Waxing Crescent
Dec 2
First Quarter
Dec 10
Full
Dec 17
Last Quarter
Dec 24
New

Hourly Weather History & Observations

Time (CST) Temp. Windchill Dew Point Humidity Pressure Visibility Wind Dir Wind Speed Gust Speed Precip Events Conditions
12:54 AM 21.0 °F 14.6 °F 9.0 °F 60% 30.20 in 10.0 mi West 4.6 mph - N/A   Clear
1:54 AM 19.9 °F 14.9 °F 10.0 °F 65% 30.19 in 10.0 mi WNW 3.5 mph - N/A   Clear
2:54 AM 21.9 °F 17.2 °F 9.0 °F 58% 30.17 in 10.0 mi SW 3.5 mph - N/A   Clear
3:54 AM 19.9 °F 13.4 °F 10.0 °F 65% 30.15 in 10.0 mi SW 4.6 mph - N/A   Clear
4:54 AM 19.9 °F 13.4 °F 10.0 °F 65% 30.14 in 10.0 mi South 4.6 mph - N/A   Clear
5:54 AM 19.9 °F 14.9 °F 9.0 °F 62% 30.13 in 10.0 mi South 3.5 mph - N/A   Clear
6:54 AM 21.0 °F 16.2 °F 9.0 °F 60% 30.14 in 10.0 mi South 3.5 mph - N/A   Scattered Clouds
7:54 AM 21.0 °F 12.4 °F 12.0 °F 68% 30.13 in 10.0 mi South 6.9 mph - N/A   Scattered Clouds
8:54 AM 28.0 °F 22.8 °F 15.1 °F 58% 30.13 in 10.0 mi SSW 4.6 mph - N/A   Overcast
9:54 AM 37.0 °F 29.8 °F 12.9 °F 37% 30.11 in 10.0 mi SSW 10.4 mph - N/A   Mostly Cloudy
10:54 AM 43.0 °F 37.2 °F 9.0 °F 25% 30.10 in 10.0 mi SW 10.4 mph - N/A   Mostly Cloudy
11:54 AM 46.9 °F - 7.0 °F 20% 30.06 in 10.0 mi SSW 12.7 mph - N/A   Mostly Cloudy
12:54 PM 48.0 °F - 8.1 °F 20% 30.02 in 10.0 mi SSW 19.6 mph 25.3 mph N/A   Mostly Cloudy
1:54 PM 48.9 °F - 8.1 °F 19% 30.01 in 10.0 mi SSW 13.8 mph - N/A   Mostly Cloudy
2:54 PM 48.0 °F - 10.9 °F 22% 30.00 in 10.0 mi South 10.4 mph - N/A   Mostly Cloudy
3:54 PM 44.1 °F 37.1 °F 12.9 °F 28% 30.00 in 10.0 mi South 15.0 mph - N/A   Overcast
4:54 PM 41.0 °F 36.4 °F 12.2 °F 31% 29.98 in 10.0 mi South 6.9 mph - N/A   Mostly Cloudy
5:54 PM 41.0 °F 34.3 °F 15.1 °F 35% 30.00 in 10.0 mi South 11.5 mph - N/A   Overcast
6:54 PM 41.0 °F 33.9 °F 15.1 °F 35% 30.01 in 10.0 mi South 12.7 mph - N/A   Overcast
7:54 PM 39.2 °F 32.5 °F 15.8 °F 39% 29.99 in 10.0 mi South 10.4 mph - N/A   Overcast
8:54 PM 39.0 °F 32.8 °F 15.1 °F 38% 30.03 in 10.0 mi South 9.2 mph - N/A   Mostly Cloudy
9:54 PM 37.9 °F 31.5 °F 15.1 °F 39% 30.05 in 10.0 mi South 9.2 mph - N/A   Mostly Cloudy
10:54 PM 35.1 °F 29.3 °F 15.1 °F 44% 30.07 in 10.0 mi South 6.9 mph - N/A   Scattered Clouds
11:54 PM 37.0 °F - 15.1 °F 41% 30.09 in 10.0 mi Calm Calm - N/A   Mostly Cloudy